W4NFM Weather Reports


Display with metric or nautical units.
time (UTC)temp
F
wind
direction
speed
MPH
gust
MPH
rain 1hr
in
rain 24hr
in
rain mn
in
humidity
%
barometer
mb
20260505082704 59 250 0.0 3.0 0.00 0.00 0.00 61 1014.6
20260505081804 59 274 1.0 2.0 0.00 0.00 0.00 59 1014.6
20260505080904 62 247 1.0 4.0 0.00 0.00 0.00 55 1014.4
20260505080004 60 240 0.0 2.0 0.00 0.00 0.00 55 1014.4
20260505075404 59 278 0.0 1.0 0.00 0.00 0.00 56 1014.3
20260505074525 59 257 0.0 2.0 0.00 0.00 0.00 61 1014.4
20260505073604 61 211 0.0 1.0 0.00 0.00 0.00 57 1014.4
20260505072704 60 293 0.0 1.0 0.00 0.00 0.00 56 1014.4
20260505071804 60 299 0.0 1.0 0.00 0.00 0.00 57 1014.2
20260505070904 60 252 0.0 2.0 0.00 0.00 0.00 59 1014.2
20260505070004 61 225 0.0 3.0 0.00 0.00 0.00 57 1014.3
20260505065404 61 213 0.0 3.0 0.00 0.00 0.00 55 1014.3
20260505064504 61 237 1.0 3.0 0.00 0.00 0.00 55 1013.9
20260505063625 61 236 1.0 3.0 0.00 0.00 0.00 52 1014.1
20260505062725 60 249 0.0 2.0 0.00 0.00 0.00 52 1014.2
20260505061804 61 237 1.0 2.0 0.00 0.00 0.00 56 1014.1
20260505060904 61 258 1.0 2.0 0.00 0.00 0.00 54 1014.0
20260505060004 62 233 1.0 3.0 0.00 0.00 0.00 52 1014.0
20260505055425 62 228 1.0 3.0 0.00 0.00 0.00 54 1014.2
20260505054504 61 233 0.0 2.0 0.00 0.00 0.00 51 1014.2
20260505053604 60 238 1.0 4.0 0.00 0.00 0.00 51 1014.0
20260505052725 62 241 0.0 2.0 0.00 0.00 0.00 52 1014.0
20260505051804 62 238 0.0 2.0 0.00 0.00 0.00 50 1014.0
20260505050904 61 217 0.0 2.0 0.00 0.00 0.00 57 1014.1
20260505040904 66 252 0.0 3.0 0.00 0.00 0.00 43 1014.0
20260505040005 65 274 1.0 4.0 0.00 0.00 0.00 49 1013.8
20260505035404 64 316 0.0 2.0 0.00 0.00 0.00 51 1014.1
20260505034504 65 286 0.0 2.0 0.00 0.00 0.00 50 1014.0
20260505033604 66 274 0.0 2.0 0.00 0.00 0.00 46 1014.2
20260505032724 67 248 1.0 4.0 0.00 0.00 0.00 50 1013.9
20260505031804 67 230 1.0 3.0 0.00 0.00 0.00 44 1013.9
20260505030904 68 221 1.0 7.0 0.00 0.00 0.00 46 1014.0
20260505030004 69 203 2.0 11.0 0.00 0.00 0.00 45 1014.2
20260505025404 68 201 2.0 11.0 0.00 0.00 0.00 44 1014.1
20260505024504 69 218 2.0 8.0 0.00 0.00 0.00 45 1014.0
20260505023604 67 248 1.0 3.0 0.00 0.00 0.00 47 1014.0
20260505022704 68 243 1.0 4.0 0.00 0.00 0.00 48 1014.0
20260505021804 67 290 0.0 2.0 0.00 0.00 0.00 52 1014.0
20260505020904 68 239 0.0 6.0 0.00 0.00 0.00 52 1014.1
20260505020004 68 231 1.0 6.0 0.00 0.00 0.00 49 1014.1
20260505015404 68 219 2.0 4.0 0.00 0.00 0.00 49 1014.0
20260505014504 68 220 2.0 4.0 0.00 0.00 0.00 50 1014.1
20260505013604 68 225 1.0 3.0 0.00 0.00 0.00 50 1014.1
20260505012725 68 236 1.0 2.0 0.00 0.00 0.00 51 1013.9
20260505011804 68 226 2.0 6.0 0.00 0.00 0.00 51 1013.8
20260505010904 68 237 1.0 3.0 0.00 0.00 0.00 51 1013.8
20260505010004 69 211 2.0 7.0 0.00 0.00 0.00 50 1013.6
20260505005404 69 229 2.0 6.0 0.00 0.00 0.00 50 1013.5
20260505004504 69 224 1.0 6.0 0.00 0.00 0.00 51 1013.2
20260505003604 69 229 1.0 4.0 0.00 0.00 0.00 51 1013.3
20260505002725 69 227 1.0 4.0 0.00 0.00 0.00 50 1013.0
20260505001803 70 210 2.0 7.0 0.00 0.00 0.00 50 1013.0
20260505000903 70 241 2.0 6.0 0.00 0.00 0.00 51 1013.1
20260505000004 70 233 1.0 4.0 0.00 0.00 0.00 52 1013.1
20260504235404 69 245 0.0 2.0 0.00 0.00 0.00 53 1012.9
20260504234504 69 280 0.0 1.0 0.00 0.00 0.00 53 1013.0
20260504233604 71 243 1.0 2.0 0.00 0.00 0.00 50 1013.0
20260504232704 71 248 0.0 2.0 0.00 0.00 0.00 49 1012.9
20260504231804 73 234 0.0 1.0 0.00 0.00 0.00 47 1012.8
20260504230925 73 223 1.0 2.0 0.00 0.00 0.00 43 1012.9
20260504230004 74 218 1.0 4.0 0.00 0.00 0.00 42 1012.9
20260504225404 74 222 1.0 6.0 0.00 0.00 0.00 39 1012.8
20260504224503 75 205 2.0 8.0 0.00 0.00 0.00 38 1012.8
20260504223625 75 231 1.0 3.0 0.00 0.00 0.00 39 1012.9
20260504222724 75 239 1.0 2.0 0.00 0.00 0.00 39 1012.9
20260504221804 75 222 1.0 7.0 0.00 0.00 0.00 39 1013.0
20260504220904 75 216 2.0 7.0 0.00 0.00 0.00 40 1013.0
20260504220004 75 202 2.0 8.0 0.00 0.00 0.00 40 1013.1
20260504215404 75 207 2.0 6.0 0.00 0.00 0.00 38 1013.1
20260504214504 76 215 2.0 6.0 0.00 0.00 0.00 39 1013.2
20260504213604 76 219 2.0 4.0 0.00 0.00 0.00 40 1013.2
20260504212704 76 216 2.0 6.0 0.00 0.00 0.00 41 1013.3
20260504211825 76 270 1.0 2.0 0.00 0.00 0.00 42 1013.3
20260504210903 76 292 0.0 2.0 0.00 0.00 0.00 44 1013.1
20260504210004 75 285 0.0 1.0 0.00 0.00 0.00 49 1013.2
20260504205403 73 272 1.0 2.0 0.00 0.00 0.00 47 1013.2
20260504204525 74 266 1.0 2.0 0.00 0.00 0.00 47 1013.1
20260504203603 74 253 1.0 3.0 0.00 0.00 0.00 46 1013.0
20260504202704 73 218 2.0 4.0 0.00 0.00 0.00 45 1013.2
20260504201825 73 265 1.0 2.0 0.00 0.00 0.00 47 1013.4
20260504200903 73 226 1.0 4.0 0.00 0.00 0.00 44 1013.5
20260504200004 74 246 1.0 3.0 0.00 0.00 0.00 42 1013.7
20260504195403 74 220 2.0 6.0 0.00 0.00 0.00 43 1013.6
20260504194504 74 214 2.0 6.0 0.00 0.00 0.00 43 1013.8
20260504193604 75 204 3.0 6.0 0.00 0.00 0.00 46 1014.0
20260504192703 74 205 3.0 6.0 0.00 0.00 0.00 44 1014.1
20260504191803 73 228 2.0 8.0 0.00 0.00 0.00 44 1014.2
20260504190904 74 213 3.0 8.0 0.00 0.00 0.00 43 1014.2
20260504190004 73 227 2.0 7.0 0.00 0.00 0.00 45 1014.2
20260504185424 73 205 2.0 7.0 0.00 0.00 0.00 44 1014.4
20260504184503 72 208 1.0 4.0 0.00 0.00 0.00 44 1014.2
20260504183624 69 220 1.0 4.0 0.00 0.00 0.00 46 1014.7
20260504182704 69 216 2.0 4.0 0.00 0.00 0.00 46 1014.9
20260504181824 70 219 1.0 4.0 0.00 0.00 0.00 46 1014.9
20260504180903 69 212 1.0 8.0 0.00 0.00 0.00 46 1015.2
20260504180004 70 270 1.0 4.0 0.00 0.00 0.00 47 1015.5
20260504175403 71 221 1.0 6.0 0.00 0.00 0.00 45 1015.2
20260504174503 71 209 2.0 4.0 0.00 0.00 0.00 44 1015.1
20260504173604 74 233 1.0 6.0 0.00 0.00 0.00 41 1015.2
20260504172703 74 227 1.0 6.0 0.00 0.00 0.00 41 1015.1
20260504171803 72 244 1.0 6.0 0.00 0.00 0.00 41 1015.3
20260504170903 71 265 1.0 2.0 0.00 0.00 0.00 45 1015.4
20260504150903 65 291 1.0 4.0 0.00 0.00 0.00 45 1016.6
20260504140903 58 259 0.0 1.0 0.00 0.00 0.00 58 1017.1